Weather History for Lebanon, NH

Change the Weather History Date:

Tuesday, May 27, 2014

  Actual Average Record
Temperature  
Mean Temperature 62 °F -  
Max Temperature 75 °F 72 °F 90 °F (1944)
Min Temperature 48 °F 45 °F 29 °F (1968)
Degree Days  
Heating Degree Days 2    
Growing Degree Days 12 (Base 50)    
Moisture  
Dew Point 51 °F    
Average Humidity 80    
Maximum Humidity 93    
Minimum Humidity 50    
Precipitation  
Precipitation 0.19 in - - ()
Sea Level Pressure  
Sea Level Pressure 29.84 in    
Wind  
Wind Speed 2 mph (SE)    
Max Wind Speed 10 mph    
Max Gust Speed 22 mph    
Visibility 9 miles    
Events Rain , Thunderstorm    
Averages and records for this station are not official NWS values.
T = Trace of Precipitation, MM = Missing Value Source: NWS Daily Summary

Daily Weather History Graph

Daily Weather History Graph

Search for Another Location

Airport:

Trip Planner

Search our weather history database for the weather conditions in past years. The results will help you decide how hot, cold, wet, or windy it might be!

Date:

Astronomy

May. 27, 2014 Rise Set
Actual Time 5:13 AM EDT 8:19 PM EDT
Civil Twilight 4:39 AM EDT 8:54 PM EDT
Nautical Twilight 3:55 AM EDT 9:38 PM EDT
Astronomical Twilight 3:02 AM EDT 10:31 PM EDT
Moon 4:37 AM EDT (5/27) 7:16 PM EDT (5/27)
Length of Visible Light 16h 14m
Length of Day
15h 05m
Waning Crescent, 1% of the Moon is Illuminated
May 27
Waning Crescent
May 28
New
Jun 5
First Quarter
Jun 13
Full
Jun 19
Last Quarter

Hourly Weather History & Observations

Time (EDT) Temp. Dew Point Humidity Pressure Visibility Wind Dir Wind Speed Gust Speed Precip Events Conditions
12:53 AM 55.9 °F 53.1 °F 90% 29.82 in 10.0 mi Calm Calm - N/A   Partly Cloudy
2:53 AM 57.0 °F 53.1 °F 87% 29.80 in 10.0 mi Calm Calm - N/A   Clear
3:53 AM 54.0 °F 51.1 °F 90% 29.80 in 10.0 mi Calm Calm - N/A   Clear
4:53 AM 53.1 °F 51.1 °F 93% 29.81 in 8.0 mi Calm Calm - N/A   Clear
5:15 AM 52.0 °F 48.9 °F 89% 29.84 in 1.2 mi Calm Calm - N/A   Clear
5:33 AM 51.1 °F 48.9 °F 92% 29.83 in 3.0 mi Calm Calm - N/A   Clear
5:53 AM 53.1 °F 50.0 °F 89% 29.82 in 5.0 mi Calm Calm - N/A   Clear
6:00 AM 53.1 °F 50.0 °F 89% 29.84 in 8.0 mi Calm Calm - N/A   Scattered Clouds
6:53 AM 55.9 °F 53.1 °F 90% 29.82 in 10.0 mi Calm Calm - N/A   Clear
7:53 AM 60.1 °F 54.0 °F 80% 29.83 in 10.0 mi Calm Calm - N/A   Clear
8:53 AM 64.9 °F 55.0 °F 70% 29.83 in 10.0 mi Calm Calm - N/A   Clear
9:53 AM 66.9 °F 55.0 °F 66% 29.83 in 10.0 mi Calm Calm - N/A   Clear
10:53 AM 73.0 °F 57.9 °F 59% 29.81 in 10.0 mi Calm Calm - N/A   Clear
11:53 AM 75.0 °F 55.0 °F 50% 29.80 in 10.0 mi Variable 5.8 mph - N/A   Mostly Cloudy
12:53 PM 66.9 °F 61.0 °F 81% 29.80 in 9.0 mi South 5.8 mph - 0.06 in Rain Light Rain
1:53 PM 64.9 °F 59.0 °F 81% 29.81 in 10.0 mi Variable 5.8 mph - 0.00 in Rain Light Rain
2:53 PM 64.0 °F 55.9 °F 75% 29.81 in 10.0 mi ESE 10.4 mph - 0.00 in   Scattered Clouds
3:46 PM 62.1 °F 54.0 °F 75% 29.83 in 10.0 mi SE 9.2 mph 17.3 mph N/A   Mostly Cloudy
3:53 PM 61.0 °F 53.1 °F 75% 29.81 in 10.0 mi ESE 9.2 mph 19.6 mph N/A   Mostly Cloudy
4:00 PM 60.1 °F 53.1 °F 78% 29.82 in 10.0 mi ESE 8.1 mph 21.9 mph N/A   Overcast
4:23 PM 59.0 °F 52.0 °F 78% 29.83 in 10.0 mi ESE 10.4 mph 18.4 mph N/A   Overcast
4:53 PM 57.0 °F 51.1 °F 81% 29.82 in 10.0 mi Variable 5.8 mph 18.4 mph N/A   Overcast
5:53 PM 55.0 °F 48.9 °F 80% 29.85 in 10.0 mi Variable 3.5 mph - 0.00 in Thunderstorm Overcast
6:23 PM 54.0 °F 48.9 °F 83% 29.84 in 10.0 mi ESE 9.2 mph - 0.02 in Rain Light Rain
6:31 PM 54.0 °F 48.0 °F 80% 29.85 in 10.0 mi Variable 5.8 mph - 0.02 in   Overcast
6:53 PM 54.0 °F 48.0 °F 80% 29.86 in 10.0 mi Variable 3.5 mph 18.4 mph 0.02 in   Overcast
7:06 PM 53.1 °F 48.0 °F 83% 29.89 in 10.0 mi Variable 3.5 mph - N/A   Overcast
7:35 PM 52.0 °F 45.0 °F 77% 29.89 in 10.0 mi ESE 8.1 mph - 0.00 in   Overcast
7:53 PM 51.1 °F 44.1 °F 77% 29.90 in 10.0 mi ESE 9.2 mph 18.4 mph 0.00 in Rain Light Rain
8:53 PM 51.1 °F 45.0 °F 80% 29.91 in 10.0 mi SSE 3.5 mph - 0.02 in Rain Light Rain
9:53 PM 51.1 °F 44.1 °F 77% 29.92 in 10.0 mi Variable 3.5 mph - 0.01 in   Overcast
10:53 PM 50.0 °F 44.1 °F 80% 29.93 in 10.0 mi SE 3.5 mph - 0.00 in Rain Light Rain
11:53 PM 48.9 °F 44.1 °F 83% 29.93 in 10.0 mi Calm Calm - 0.08 in   Overcast